GEFSSE_prec_meanprecacc_006.txt.gz
Total_Precipitation_Accumulation
0.00 0.00 0.02 0.01 0.00 0.01 0.01 0.00 0.00 0.00 0.00 0.00 0.00 0.00 0.00 0.00 0.00 0.00 0.00 0.00 0.00 0.00 0.00 0.00 0.00 0.00 0.01 0.00 0.00 0.00 0.00 0.00 0.00 0.00 0.00 0.00 0.00 0.00 0.00 0.00 0.00 0.00 0.00
0.00 0.00 0.00 0.00 0.00 0.01 0.01 0.01 0.00 0.00 0.00 0.00 0.00 0.00 0.00 0.00 0.00 0.00 0.00 0.00 0.00 0.00 0.00 0.00 0.00 0.00 0.00 0.00 0.00 0.00 0.00 0.00 0.00 0.00 0.00 0.00 0.00 0.00 0.00 0.00 0.00 0.00 0.00
0.00 0.00 0.00 0.00 0.01 0.01 0.01 0.00 0.00 0.00 0.00 0.00 0.01 0.01 0.01 0.01 0.00 0.00 0.00 0.00 0.00 0.00 0.00 0.00 0.00 0.00 0.00 0.00 0.00 0.00 0.00 0.00 0.00 0.00 0.00 0.00 0.00 0.00 0.00 0.00 0.00 0.00 0.00
0.00 0.00 0.00 0.00 0.01 0.01 0.01 0.01 0.01 0.01 0.00 0.01 0.04 0.05 0.04 0.01 0.00 0.00 0.00 0.00 0.00 0.00 0.00 0.00 0.00 0.00 0.00 0.00 0.01 0.00 0.00 0.00 0.00 0.00 0.01 0.04 0.03 0.00 0.00 0.00 0.00 0.00 0.00
0.00 0.00 0.00 0.00 0.01 0.00 0.00 0.01 0.03 0.01 0.00 0.02 0.08 0.09 0.06 0.01 0.01 0.01 0.00 0.00 0.00 0.01 0.00 0.00 0.01 0.00 0.00 0.00 0.00 0.00 0.00 0.00 0.00 0.00 0.01 0.05 0.06 0.00 0.00 0.00 0.00 0.00 0.00
0.00 0.00 0.00 0.00 0.01 0.00 0.00 0.01 0.04 0.05 0.03 0.04 0.07 0.08 0.07 0.05 0.06 0.05 0.01 0.01 0.01 0.01 0.01 0.00 0.00 0.00 0.00 0.00 0.00 0.00 0.00 0.00 0.00 0.01 0.01 0.01 0.01 0.00 0.00 0.00 0.00 0.00 0.00
0.00 0.00 0.00 0.00 0.00 0.00 0.00 0.00 0.01 0.04 0.05 0.06 0.07 0.06 0.04 0.02 0.02 0.02 0.01 0.01 0.01 0.00 0.00 0.00 0.00 0.00 0.00 0.00 0.00 0.00 0.00 0.00 0.00 0.00 0.01 0.01 0.00 0.00 0.00 0.00 0.00 0.00 0.00
0.00 0.00 0.00 0.00 0.00 0.00 0.00 0.00 0.00 0.00 0.01 0.01 0.02 0.01 0.01 0.00 0.01 0.01 0.01 0.01 0.01 0.00 0.00 0.00 0.00 0.00 0.00 0.00 0.00 0.00 0.00 0.00 0.00 0.01 0.04 0.04 0.02 0.03 0.05 0.02 0.01 0.00 0.00
0.00 0.00 0.00 0.00 0.00 0.00 0.00 0.00 0.00 0.00 0.00 0.00 0.00 0.00 0.00 0.00 0.00 0.00 0.01 0.02 0.01 0.01 0.01 0.01 0.00 0.00 0.00 0.00 0.00 0.01 0.01 0.00 0.00 0.01 0.03 0.06 0.04 0.12 0.16 0.09 0.03 0.02 0.00
0.00 0.00 0.00 0.00 0.00 0.00 0.00 0.00 0.00 0.00 0.00 0.00 0.00 0.00 0.00 0.00 0.00 0.02 0.02 0.01 0.02 0.02 0.03 0.01 0.00 0.00 0.00 0.00 0.00 0.02 0.02 0.01 0.01 0.00 0.01 0.02 0.05 0.15 0.19 0.16 0.11 0.07 0.03
0.00 0.00 0.00 0.00 0.00 0.00 0.00 0.00 0.00 0.00 0.00 0.00 0.00 0.00 0.00 0.00 0.00 0.02 0.03 0.02 0.03 0.01 0.01 0.00 0.00 0.00 0.00 0.00 0.01 0.01 0.01 0.01 0.00 0.00 0.00 0.01 0.06 0.14 0.17 0.15 0.13 0.13 0.10
0.00 0.00 0.00 0.00 0.00 0.00 0.00 0.00 0.00 0.00 0.00 0.00 0.00 0.00 0.00 0.00 0.01 0.01 0.01 0.01 0.02 0.01 0.01 0.02 0.01 0.02 0.03 0.03 0.03 0.05 0.02 0.03 0.01 0.00 0.02 0.06 0.07 0.10 0.10 0.09 0.11 0.13 0.12
0.00 0.00 0.00 0.00 0.00 0.00 0.00 0.00 0.00 0.00 0.00 0.00 0.00 0.00 0.00 0.00 0.00 0.00 0.00 0.00 0.01 0.04 0.04 0.04 0.05 0.06 0.06 0.04 0.02 0.01 0.01 0.03 0.04 0.01 0.01 0.06 0.06 0.06 0.08 0.08 0.07 0.06 0.05
0.00 0.00 0.00 0.00 0.00 0.00 0.00 0.00 0.00 0.00 0.00 0.00 0.00 0.00 0.00 0.00 0.00 0.00 0.00 0.00 0.00 0.01 0.02 0.01 0.02 0.03 0.02 0.01 0.00 0.00 0.01 0.01 0.01 0.01 0.02 0.04 0.04 0.04 0.07 0.07 0.06 0.04 0.04
0.00 0.00 0.00 0.00 0.00 0.00 0.00 0.00 0.00 0.00 0.00 0.00 0.00 0.00 0.00 0.00 0.00 0.00 0.00 0.00 0.00 0.01 0.01 0.01 0.00 0.01 0.01 0.02 0.03 0.02 0.02 0.02 0.01 0.01 0.02 0.02 0.02 0.02 0.03 0.05 0.05 0.03 0.03
0.00 0.00 0.00 0.00 0.00 0.00 0.00 0.00 0.00 0.00 0.00 0.00 0.00 0.00 0.00 0.00 0.00 0.00 0.00 0.00 0.02 0.02 0.02 0.04 0.04 0.03 0.06 0.10 0.13 0.06 0.01 0.01 0.00 0.01 0.01 0.01 0.01 0.01 0.02 0.03 0.03 0.01 0.01
0.00 0.00 0.00 0.00 0.00 0.00 0.00 0.00 0.00 0.00 0.00 0.00 0.00 0.00 0.00 0.00 0.00 0.00 0.00 0.01 0.02 0.03 0.05 0.06 0.10 0.10 0.12 0.15 0.11 0.06 0.01 0.00 0.00 0.00 0.00 0.00 0.01 0.01 0.01 0.02 0.01 0.00 0.00
0.00 0.00 0.00 0.00 0.00 0.00 0.00 0.00 0.00 0.00 0.00 0.00 0.00 0.00 0.00 0.00 0.00 0.01 0.02 0.06 0.10 0.10 0.08 0.11 0.21 0.17 0.14 0.14 0.09 0.06 0.02 0.01 0.01 0.00 0.00 0.00 0.00 0.00 0.00 0.01 0.01 0.00 0.00
0.00 0.00 0.00 0.00 0.00 0.00 0.00 0.00 0.00 0.00 0.00 0.00 0.00 0.00 0.01 0.02 0.03 0.07 0.10 0.17 0.21 0.18 0.17 0.20 0.25 0.19 0.11 0.09 0.11 0.10 0.05 0.04 0.01 0.01 0.00 0.00 0.00 0.00 0.00 0.00 0.01 0.01 0.00
0.01 0.01 0.01 0.01 0.00 0.00 0.01 0.00 0.00 0.00 0.00 0.00 0.00 0.01 0.01 0.01 0.05 0.10 0.12 0.14 0.20 0.22 0.22 0.18 0.14 0.18 0.14 0.13 0.25 0.27 0.11 0.03 0.03 0.01 0.00 0.00 0.00 0.00 0.00 0.00 0.00 0.00 0.00
0.01 0.02 0.05 0.05 0.03 0.02 0.02 0.02 0.00 0.00 0.00 0.02 0.03 0.03 0.02 0.02 0.05 0.08 0.06 0.07 0.09 0.10 0.17 0.21 0.18 0.14 0.06 0.10 0.20 0.23 0.09 0.06 0.11 0.04 0.02 0.02 0.01 0.00 0.00 0.00 0.00 0.00 0.00
0.12 0.17 0.17 0.17 0.13 0.09 0.06 0.03 0.01 0.01 0.02 0.02 0.04 0.04 0.03 0.03 0.03 0.03 0.02 0.02 0.03 0.10 0.13 0.15 0.19 0.15 0.09 0.09 0.12 0.20 0.09 0.09 0.12 0.08 0.08 0.12 0.08 0.03 0.01 0.00 0.00 0.00 0.00
0.21 0.21 0.19 0.16 0.13 0.11 0.08 0.05 0.03 0.03 0.02 0.02 0.02 0.02 0.02 0.02 0.02 0.01 0.01 0.02 0.04 0.10 0.15 0.19 0.20 0.17 0.16 0.15 0.15 0.14 0.08 0.07 0.09 0.08 0.12 0.14 0.11 0.07 0.04 0.03 0.01 0.00 0.00
0.16 0.18 0.17 0.15 0.13 0.13 0.11 0.11 0.06 0.03 0.02 0.02 0.01 0.01 0.00 0.00 0.00 0.01 0.02 0.05 0.09 0.16 0.17 0.17 0.15 0.11 0.08 0.12 0.12 0.09 0.09 0.11 0.14 0.08 0.07 0.06 0.07 0.08 0.09 0.07 0.03 0.02 0.01
0.12 0.13 0.15 0.15 0.14 0.13 0.12 0.09 0.04 0.02 0.01 0.01 0.00 0.00 0.00 0.00 0.00 0.00 0.01 0.04 0.09 0.14 0.13 0.11 0.08 0.07 0.05 0.07 0.13 0.16 0.14 0.12 0.16 0.20 0.16 0.12 0.11 0.11 0.11 0.05 0.02 0.02 0.02
0.10 0.08 0.06 0.06 0.05 0.05 0.04 0.03 0.01 0.01 0.00 0.00 0.00 0.00 0.00 0.00 0.00 0.01 0.02 0.04 0.11 0.17 0.15 0.12 0.08 0.06 0.09 0.13 0.14 0.12 0.11 0.11 0.11 0.14 0.12 0.08 0.06 0.03 0.02 0.02 0.01 0.02 0.02

GEFSSE_prec_meanprecacc_012.txt.gz
Total_Precipitation_Accumulation
0.00 0.00 0.04 0.02 0.00 0.01 0.01 0.00 0.00 0.00 0.00 0.00 0.00 0.00 0.00 0.00 0.00 0.00 0.00 0.00 0.00 0.00 0.00 0.00 0.00 0.00 0.01 0.00 0.00 0.00 0.00 0.00 0.00 0.00 0.00 0.00 0.00 0.00 0.00 0.00 0.00 0.00 0.00
0.00 0.00 0.02 0.00 0.00 0.01 0.01 0.01 0.00 0.00 0.00 0.00 0.00 0.00 0.00 0.00 0.00 0.00 0.00 0.00 0.00 0.00 0.00 0.00 0.00 0.00 0.00 0.00 0.00 0.00 0.00 0.00 0.00 0.00 0.00 0.00 0.00 0.00 0.00 0.00 0.00 0.00 0.00
0.00 0.00 0.00 0.00 0.01 0.01 0.01 0.00 0.00 0.00 0.00 0.00 0.01 0.01 0.01 0.01 0.00 0.00 0.00 0.00 0.00 0.00 0.00 0.00 0.00 0.00 0.00 0.00 0.00 0.00 0.00 0.00 0.00 0.00 0.00 0.00 0.00 0.00 0.00 0.00 0.00 0.00 0.00
0.00 0.00 0.00 0.00 0.01 0.01 0.01 0.01 0.01 0.01 0.00 0.01 0.04 0.05 0.04 0.01 0.00 0.00 0.00 0.00 0.00 0.00 0.00 0.00 0.00 0.00 0.00 0.00 0.01 0.00 0.00 0.00 0.00 0.00 0.01 0.04 0.03 0.00 0.00 0.00 0.00 0.00 0.00
0.00 0.00 0.00 0.00 0.01 0.00 0.00 0.01 0.03 0.01 0.00 0.02 0.08 0.09 0.06 0.01 0.01 0.01 0.00 0.00 0.00 0.01 0.00 0.00 0.01 0.00 0.00 0.00 0.00 0.00 0.00 0.00 0.00 0.00 0.01 0.05 0.06 0.01 0.00 0.01 0.01 0.01 0.00
0.00 0.00 0.00 0.00 0.01 0.00 0.00 0.01 0.04 0.05 0.03 0.04 0.07 0.08 0.07 0.05 0.06 0.05 0.01 0.01 0.01 0.01 0.01 0.00 0.00 0.00 0.00 0.00 0.00 0.00 0.00 0.00 0.00 0.01 0.01 0.01 0.01 0.01 0.00 0.01 0.02 0.03 0.01
0.00 0.00 0.00 0.00 0.00 0.00 0.00 0.00 0.01 0.04 0.05 0.06 0.07 0.06 0.04 0.02 0.02 0.02 0.01 0.01 0.01 0.01 0.00 0.00 0.00 0.00 0.00 0.00 0.00 0.00 0.00 0.00 0.00 0.00 0.01 0.01 0.00 0.01 0.01 0.02 0.01 0.02 0.02
0.00 0.00 0.00 0.00 0.00 0.00 0.00 0.00 0.00 0.00 0.01 0.01 0.02 0.01 0.01 0.00 0.02 0.03 0.02 0.01 0.01 0.01 0.01 0.01 0.00 0.01 0.01 0.01 0.01 0.01 0.01 0.00 0.00 0.01 0.04 0.04 0.02 0.04 0.09 0.09 0.06 0.05 0.05
0.00 0.00 0.00 0.00 0.00 0.00 0.00 0.00 0.00 0.00 0.00 0.00 0.00 0.00 0.00 0.00 0.01 0.03 0.04 0.04 0.03 0.02 0.02 0.02 0.01 0.00 0.01 0.01 0.01 0.02 0.01 0.01 0.01 0.01 0.03 0.06 0.05 0.13 0.27 0.27 0.18 0.15 0.15
0.00 0.00 0.00 0.00 0.00 0.00 0.00 0.00 0.00 0.00 0.00 0.00 0.00 0.00 0.00 0.00 0.01 0.03 0.04 0.04 0.06 0.07 0.06 0.03 0.01 0.00 0.00 0.00 0.00 0.02 0.02 0.01 0.01 0.00 0.01 0.02 0.05 0.18 0.33 0.42 0.35 0.27 0.22
0.00 0.00 0.00 0.00 0.00 0.00 0.00 0.00 0.00 0.00 0.00 0.00 0.00 0.00 0.00 0.00 0.00 0.03 0.05 0.06 0.07 0.05 0.05 0.03 0.01 0.00 0.00 0.00 0.01 0.01 0.01 0.01 0.00 0.00 0.00 0.01 0.06 0.15 0.25 0.35 0.36 0.36 0.29
0.00 0.00 0.00 0.00 0.00 0.00 0.00 0.00 0.00 0.00 0.00 0.00 0.00 0.00 0.00 0.00 0.01 0.01 0.03 0.08 0.10 0.10 0.10 0.09 0.06 0.05 0.05 0.05 0.04 0.05 0.02 0.03 0.01 0.00 0.02 0.07 0.08 0.12 0.19 0.25 0.28 0.29 0.26
0.00 0.00 0.00 0.00 0.00 0.00 0.00 0.00 0.00 0.00 0.00 0.00 0.00 0.00 0.00 0.00 0.01 0.01 0.02 0.03 0.06 0.11 0.09 0.13 0.14 0.11 0.10 0.07 0.03 0.02 0.02 0.04 0.05 0.01 0.02 0.08 0.10 0.12 0.23 0.24 0.19 0.15 0.13
0.00 0.00 0.00 0.00 0.00 0.00 0.00 0.00 0.00 0.00 0.00 0.00 0.00 0.00 0.00 0.00 0.00 0.00 0.01 0.01 0.02 0.03 0.04 0.06 0.06 0.07 0.05 0.03 0.01 0.00 0.01 0.01 0.01 0.02 0.02 0.05 0.07 0.10 0.21 0.23 0.16 0.11 0.10
0.00 0.00 0.00 0.00 0.00 0.00 0.00 0.00 0.00 0.00 0.00 0.00 0.00 0.00 0.00 0.00 0.00 0.00 0.00 0.00 0.01 0.02 0.02 0.02 0.03 0.05 0.06 0.04 0.03 0.02 0.02 0.02 0.01 0.02 0.03 0.02 0.04 0.05 0.11 0.14 0.11 0.10 0.09
0.00 0.00 0.00 0.00 0.00 0.00 0.00 0.00 0.00 0.00 0.00 0.00 0.00 0.00 0.00 0.00 0.00 0.00 0.00 0.01 0.02 0.02 0.02 0.04 0.07 0.08 0.11 0.16 0.16 0.07 0.02 0.01 0.01 0.01 0.01 0.01 0.02 0.03 0.05 0.08 0.07 0.06 0.06
0.00 0.00 0.00 0.00 0.00 0.00 0.00 0.00 0.00 0.00 0.00 0.00 0.00 0.00 0.00 0.00 0.00 0.00 0.00 0.01 0.03 0.04 0.05 0.07 0.13 0.14 0.18 0.25 0.17 0.08 0.02 0.00 0.00 0.00 0.00 0.00 0.01 0.01 0.03 0.04 0.03 0.03 0.04
0.00 0.00 0.00 0.00 0.00 0.00 0.00 0.00 0.00 0.00 0.00 0.00 0.00 0.00 0.00 0.00 0.01 0.01 0.03 0.06 0.11 0.11 0.08 0.12 0.25 0.23 0.22 0.22 0.12 0.08 0.02 0.01 0.01 0.00 0.00 0.00 0.00 0.00 0.01 0.03 0.02 0.02 0.03
0.00 0.00 0.00 0.00 0.00 0.00 0.00 0.00 0.00 0.00 0.00 0.00 0.00 0.01 0.01 0.03 0.05 0.08 0.11 0.18 0.22 0.19 0.17 0.21 0.26 0.21 0.13 0.12 0.13 0.11 0.05 0.04 0.01 0.01 0.00 0.00 0.00 0.00 0.00 0.00 0.01 0.02 0.03
0.01 0.01 0.01 0.01 0.00 0.00 0.01 0.01 0.01 0.01 0.01 0.01 0.01 0.02 0.03 0.03 0.07 0.11 0.12 0.15 0.21 0.22 0.22 0.18 0.15 0.19 0.15 0.14 0.27 0.28 0.11 0.04 0.03 0.01 0.00 0.00 0.00 0.01 0.00 0.00 0.00 0.00 0.01
0.02 0.03 0.05 0.05 0.04 0.04 0.05 0.07 0.07 0.07 0.06 0.06 0.08 0.07 0.05 0.05 0.09 0.10 0.07 0.08 0.10 0.10 0.17 0.21 0.18 0.14 0.07 0.12 0.23 0.23 0.09 0.06 0.11 0.04 0.02 0.03 0.03 0.02 0.01 0.01 0.01 0.00 0.00
0.14 0.19 0.19 0.21 0.21 0.18 0.17 0.17 0.17 0.19 0.16 0.12 0.12 0.10 0.09 0.09 0.09 0.07 0.03 0.02 0.03 0.10 0.13 0.15 0.19 0.15 0.10 0.11 0.17 0.24 0.10 0.09 0.12 0.08 0.08 0.12 0.09 0.04 0.02 0.03 0.02 0.01 0.00
0.25 0.28 0.29 0.32 0.34 0.33 0.35 0.36 0.34 0.32 0.26 0.20 0.18 0.18 0.16 0.12 0.07 0.04 0.02 0.03 0.04 0.10 0.15 0.19 0.20 0.18 0.17 0.16 0.20 0.23 0.12 0.08 0.09 0.09 0.12 0.14 0.12 0.08 0.06 0.06 0.04 0.02 0.01
0.35 0.43 0.52 0.58 0.61 0.64 0.64 0.60 0.50 0.41 0.35 0.33 0.27 0.21 0.12 0.06 0.03 0.02 0.02 0.05 0.09 0.16 0.17 0.17 0.15 0.12 0.10 0.14 0.15 0.16 0.19 0.19 0.20 0.10 0.08 0.08 0.09 0.09 0.11 0.10 0.06 0.05 0.04
0.52 0.61 0.73 0.82 0.85 0.85 0.81 0.68 0.52 0.42 0.33 0.26 0.19 0.11 0.05 0.02 0.01 0.00 0.01 0.04 0.09 0.14 0.13 0.12 0.09 0.09 0.08 0.10 0.17 0.23 0.26 0.29 0.34 0.33 0.22 0.16 0.16 0.15 0.14 0.08 0.05 0.05 0.04
0.60 0.61 0.62 0.65 0.68 0.70 0.68 0.58 0.44 0.33 0.23 0.15 0.08 0.04 0.02 0.01 0.00 0.01 0.02 0.04 0.11 0.17 0.15 0.12 0.09 0.08 0.13 0.19 0.23 0.24 0.25 0.25 0.25 0.29 0.22 0.15 0.10 0.06 0.04 0.03 0.03 0.04 0.04

GEFSSE_prec_meanprecacc_018.txt.gz
Total_Precipitation_Accumulation
0.00 0.00 0.04 0.02 0.00 0.01 0.01 0.00 0.00 0.00 0.01 0.01 0.01 0.01 0.00 0.00 0.00 0.00 0.00 0.00 0.00 0.00 0.00 0.00 0.00 0.00 0.01 0.00 0.00 0.00 0.00 0.00 0.00 0.00 0.00 0.00 0.00 0.00 0.00 0.00 0.00 0.00 0.00
0.00 0.00 0.02 0.00 0.00 0.01 0.01 0.01 0.00 0.00 0.00 0.00 0.00 0.00 0.00 0.00 0.00 0.00 0.00 0.00 0.00 0.00 0.00 0.00 0.00 0.00 0.00 0.00 0.00 0.00 0.00 0.00 0.00 0.00 0.00 0.00 0.00 0.00 0.00 0.00 0.00 0.00 0.00
0.00 0.00 0.01 0.00 0.01 0.01 0.01 0.00 0.00 0.00 0.00 0.00 0.01 0.01 0.01 0.01 0.00 0.00 0.00 0.00 0.00 0.00 0.00 0.00 0.00 0.00 0.00 0.00 0.00 0.00 0.00 0.00 0.00 0.00 0.00 0.00 0.00 0.00 0.00 0.00 0.00 0.00 0.00
0.00 0.00 0.00 0.00 0.01 0.01 0.01 0.01 0.01 0.01 0.00 0.01 0.04 0.05 0.04 0.01 0.00 0.00 0.00 0.00 0.00 0.00 0.00 0.00 0.00 0.00 0.00 0.00 0.01 0.00 0.00 0.00 0.00 0.00 0.01 0.04 0.03 0.00 0.00 0.00 0.00 0.00 0.00
0.00 0.00 0.00 0.00 0.01 0.00 0.00 0.01 0.03 0.01 0.00 0.02 0.08 0.09 0.06 0.02 0.01 0.01 0.00 0.00 0.00 0.01 0.00 0.00 0.01 0.00 0.00 0.00 0.01 0.00 0.00 0.00 0.00 0.00 0.01 0.06 0.06 0.01 0.00 0.01 0.01 0.01 0.00
0.00 0.00 0.00 0.00 0.01 0.00 0.00 0.01 0.04 0.06 0.03 0.04 0.07 0.08 0.07 0.05 0.07 0.05 0.01 0.01 0.01 0.01 0.01 0.00 0.00 0.00 0.00 0.00 0.01 0.01 0.01 0.01 0.01 0.01 0.02 0.02 0.03 0.02 0.02 0.05 0.06 0.05 0.02
0.00 0.00 0.00 0.00 0.00 0.00 0.00 0.00 0.01 0.04 0.05 0.06 0.07 0.06 0.04 0.03 0.02 0.02 0.01 0.01 0.01 0.01 0.00 0.00 0.01 0.01 0.01 0.01 0.00 0.00 0.00 0.00 0.01 0.02 0.02 0.03 0.04 0.02 0.04 0.11 0.12 0.09 0.08
0.00 0.00 0.00 0.00 0.00 0.00 0.00 0.00 0.00 0.00 0.01 0.01 0.02 0.01 0.01 0.00 0.02 0.03 0.03 0.01 0.01 0.01 0.01 0.01 0.01 0.02 0.02 0.02 0.01 0.02 0.02 0.01 0.00 0.01 0.04 0.05 0.03 0.04 0.12 0.18 0.19 0.18 0.17
0.00 0.00 0.00 0.00 0.00 0.00 0.00 0.00 0.00 0.00 0.00 0.00 0.00 0.00 0.00 0.00 0.01 0.03 0.05 0.04 0.03 0.03 0.03 0.02 0.01 0.01 0.01 0.02 0.02 0.03 0.02 0.02 0.02 0.02 0.04 0.06 0.05 0.13 0.29 0.35 0.33 0.33 0.31
0.00 0.00 0.00 0.01 0.00 0.00 0.00 0.00 0.00 0.00 0.00 0.00 0.00 0.00 0.00 0.00 0.01 0.03 0.05 0.05 0.06 0.08 0.07 0.04 0.01 0.01 0.01 0.01 0.01 0.02 0.02 0.02 0.01 0.01 0.02 0.03 0.06 0.18 0.35 0.46 0.45 0.42 0.39
0.00 0.00 0.00 0.01 0.01 0.00 0.00 0.00 0.00 0.00 0.00 0.00 0.00 0.00 0.00 0.00 0.00 0.03 0.05 0.07 0.08 0.08 0.06 0.04 0.02 0.02 0.02 0.01 0.02 0.02 0.01 0.01 0.00 0.00 0.01 0.01 0.06 0.15 0.25 0.37 0.41 0.43 0.40
0.00 0.00 0.00 0.01 0.01 0.00 0.00 0.00 0.00 0.00 0.00 0.00 0.01 0.01 0.02 0.03 0.02 0.02 0.03 0.08 0.13 0.14 0.13 0.12 0.09 0.07 0.08 0.08 0.13 0.12 0.04 0.05 0.02 0.01 0.03 0.08 0.13 0.19 0.25 0.30 0.33 0.35 0.33
0.00 0.00 0.00 0.00 0.00 0.00 0.00 0.00 0.00 0.00 0.01 0.01 0.00 0.01 0.02 0.01 0.01 0.01 0.02 0.04 0.08 0.13 0.13 0.17 0.17 0.14 0.15 0.18 0.14 0.11 0.07 0.07 0.07 0.02 0.02 0.12 0.17 0.23 0.37 0.35 0.26 0.21 0.19
0.00 0.00 0.00 0.00 0.00 0.00 0.00 0.00 0.00 0.00 0.00 0.00 0.01 0.00 0.00 0.01 0.00 0.00 0.01 0.02 0.03 0.06 0.10 0.15 0.15 0.14 0.11 0.09 0.10 0.10 0.09 0.11 0.08 0.08 0.06 0.10 0.13 0.17 0.33 0.33 0.23 0.18 0.15
0.00 0.00 0.00 0.00 0.00 0.00 0.00 0.00 0.00 0.00 0.00 0.00 0.01 0.00 0.00 0.00 0.00 0.00 0.01 0.01 0.02 0.03 0.04 0.06 0.09 0.12 0.15 0.10 0.08 0.06 0.08 0.11 0.12 0.15 0.12 0.08 0.07 0.08 0.17 0.21 0.18 0.16 0.15
0.00 0.00 0.00 0.00 0.00 0.00 0.00 0.00 0.00 0.00 0.00 0.00 0.00 0.00 0.00 0.01 0.01 0.01 0.01 0.02 0.03 0.04 0.04 0.06 0.11 0.14 0.19 0.23 0.20 0.12 0.07 0.06 0.08 0.13 0.09 0.05 0.03 0.03 0.07 0.10 0.11 0.11 0.11
0.00 0.00 0.00 0.00 0.00 0.00 0.00 0.00 0.00 0.00 0.00 0.00 0.00 0.00 0.00 0.01 0.02 0.03 0.03 0.04 0.06 0.07 0.09 0.10 0.17 0.20 0.23 0.30 0.19 0.11 0.04 0.02 0.02 0.04 0.04 0.02 0.01 0.02 0.03 0.05 0.05 0.06 0.07
0.00 0.00 0.00 0.00 0.00 0.00 0.00 0.00 0.00 0.00 0.00 0.00 0.00 0.00 0.00 0.01 0.02 0.06 0.08 0.11 0.19 0.17 0.14 0.18 0.31 0.28 0.27 0.27 0.16 0.10 0.04 0.02 0.01 0.01 0.01 0.01 0.01 0.00 0.01 0.03 0.03 0.04 0.05
0.00 0.00 0.00 0.00 0.00 0.00 0.00 0.00 0.00 0.00 0.00 0.00 0.01 0.02 0.03 0.05 0.08 0.16 0.20 0.28 0.33 0.27 0.26 0.27 0.32 0.27 0.18 0.17 0.17 0.14 0.06 0.04 0.02 0.01 0.00 0.00 0.00 0.00 0.00 0.01 0.02 0.03 0.04
0.01 0.01 0.01 0.01 0.00 0.01 0.01 0.02 0.02 0.02 0.02 0.02 0.03 0.07 0.11 0.12 0.16 0.24 0.25 0.29 0.33 0.34 0.33 0.28 0.21 0.24 0.19 0.18 0.29 0.29 0.11 0.04 0.03 0.01 0.00 0.00 0.00 0.01 0.00 0.01 0.02 0.02 0.02
0.02 0.03 0.05 0.05 0.05 0.05 0.07 0.09 0.10 0.10 0.10 0.12 0.17 0.21 0.22 0.23 0.27 0.30 0.24 0.25 0.23 0.21 0.24 0.27 0.22 0.17 0.09 0.15 0.25 0.25 0.09 0.07 0.11 0.05 0.03 0.03 0.03 0.02 0.01 0.01 0.02 0.03 0.02
0.15 0.19 0.19 0.22 0.24 0.21 0.22 0.28 0.34 0.40 0.40 0.39 0.46 0.47 0.46 0.45 0.42 0.37 0.28 0.20 0.14 0.16 0.17 0.17 0.20 0.16 0.10 0.12 0.20 0.28 0.12 0.09 0.12 0.08 0.08 0.12 0.10 0.05 0.03 0.03 0.04 0.08 0.06
0.27 0.30 0.30 0.35 0.40 0.41 0.48 0.61 0.69 0.76 0.78 0.84 0.89 0.91 0.86 0.77 0.67 0.55 0.40 0.24 0.14 0.14 0.17 0.21 0.20 0.18 0.18 0.17 0.24 0.30 0.18 0.10 0.11 0.09 0.13 0.15 0.14 0.11 0.08 0.08 0.06 0.07 0.08
0.38 0.47 0.57 0.65 0.71 0.78 0.85 0.97 1.02 1.04 1.11 1.20 1.25 1.21 1.07 0.90 0.73 0.56 0.39 0.26 0.18 0.19 0.19 0.18 0.16 0.13 0.12 0.16 0.18 0.22 0.28 0.29 0.28 0.14 0.09 0.10 0.13 0.14 0.16 0.13 0.08 0.07 0.08
0.55 0.63 0.76 0.87 0.94 0.99 1.02 1.04 1.09 1.12 1.12 1.10 1.06 0.99 0.90 0.78 0.65 0.49 0.34 0.22 0.17 0.17 0.14 0.12 0.10 0.10 0.09 0.13 0.21 0.27 0.32 0.38 0.43 0.41 0.25 0.20 0.22 0.21 0.20 0.12 0.07 0.06 0.05
0.61 0.63 0.64 0.68 0.74 0.80 0.83 0.84 0.85 0.83 0.79 0.72 0.65 0.60 0.56 0.49 0.38 0.28 0.20 0.15 0.17 0.21 0.17 0.13 0.10 0.09 0.14 0.21 0.26 0.29 0.33 0.34 0.37 0.41 0.32 0.25 0.21 0.14 0.11 0.07 0.05 0.06 0.06

GEFSSE_prec_meanprecacc_024.txt.gz
Total_Precipitation_Accumulation
0.00 0.00 0.04 0.02 0.00 0.01 0.01 0.00 0.00 0.00 0.01 0.01 0.01 0.01 0.00 0.00 0.00 0.00 0.00 0.00 0.00 0.00 0.00 0.00 0.00 0.00 0.01 0.00 0.00 0.00 0.00 0.00 0.00 0.00 0.00 0.00 0.00 0.00 0.00 0.00 0.01 0.01 0.00
0.00 0.00 0.02 0.00 0.00 0.01 0.01 0.01 0.00 0.00 0.00 0.00 0.00 0.00 0.00 0.00 0.00 0.00 0.00 0.01 0.00 0.00 0.00 0.00 0.00 0.00 0.00 0.00 0.00 0.00 0.00 0.00 0.00 0.00 0.00 0.00 0.00 0.00 0.00 0.00 0.01 0.00 0.00
0.00 0.00 0.01 0.00 0.01 0.01 0.01 0.00 0.00 0.00 0.00 0.00 0.01 0.01 0.01 0.01 0.00 0.00 0.00 0.00 0.00 0.00 0.00 0.00 0.00 0.00 0.00 0.00 0.00 0.00 0.00 0.00 0.00 0.00 0.00 0.00 0.00 0.00 0.00 0.00 0.00 0.00 0.00
0.00 0.00 0.00 0.00 0.01 0.01 0.01 0.01 0.01 0.01 0.00 0.01 0.04 0.05 0.04 0.01 0.01 0.00 0.00 0.00 0.00 0.00 0.00 0.00 0.00 0.00 0.00 0.00 0.01 0.00 0.00 0.00 0.00 0.00 0.01 0.06 0.03 0.00 0.00 0.00 0.00 0.00 0.00
0.00 0.00 0.00 0.00 0.01 0.00 0.01 0.01 0.03 0.01 0.00 0.02 0.08 0.09 0.07 0.02 0.02 0.02 0.01 0.00 0.00 0.01 0.00 0.00 0.01 0.00 0.00 0.01 0.01 0.00 0.00 0.00 0.00 0.00 0.01 0.06 0.07 0.01 0.00 0.01 0.01 0.01 0.00
0.00 0.00 0.00 0.00 0.01 0.00 0.00 0.01 0.04 0.06 0.03 0.04 0.07 0.08 0.07 0.05 0.07 0.06 0.02 0.01 0.01 0.02 0.01 0.00 0.00 0.00 0.00 0.00 0.01 0.01 0.01 0.01 0.01 0.01 0.02 0.02 0.06 0.05 0.03 0.06 0.07 0.06 0.03
0.00 0.00 0.00 0.00 0.00 0.00 0.00 0.00 0.01 0.04 0.05 0.07 0.07 0.06 0.04 0.03 0.03 0.02 0.01 0.01 0.01 0.01 0.01 0.00 0.01 0.01 0.01 0.01 0.00 0.00 0.00 0.00 0.01 0.02 0.02 0.03 0.07 0.06 0.07 0.16 0.16 0.14 0.11
0.00 0.00 0.00 0.00 0.00 0.00 0.00 0.00 0.00 0.00 0.01 0.01 0.02 0.02 0.01 0.01 0.02 0.03 0.03 0.01 0.01 0.01 0.01 0.01 0.01 0.02 0.02 0.02 0.01 0.02 0.02 0.01 0.00 0.01 0.04 0.05 0.05 0.05 0.16 0.24 0.24 0.23 0.23
0.00 0.00 0.00 0.00 0.00 0.00 0.00 0.00 0.00 0.00 0.00 0.00 0.00 0.00 0.00 0.00 0.02 0.03 0.05 0.04 0.03 0.03 0.03 0.03 0.01 0.01 0.01 0.02 0.02 0.03 0.02 0.02 0.02 0.02 0.04 0.07 0.07 0.15 0.33 0.39 0.36 0.37 0.36
0.00 0.00 0.00 0.01 0.00 0.00 0.00 0.00 0.00 0.00 0.00 0.00 0.00 0.00 0.00 0.00 0.01 0.03 0.05 0.05 0.06 0.08 0.08 0.04 0.02 0.01 0.01 0.01 0.01 0.02 0.02 0.02 0.01 0.01 0.02 0.03 0.06 0.20 0.37 0.48 0.46 0.44 0.42
0.00 0.00 0.00 0.01 0.01 0.00 0.00 0.00 0.00 0.00 0.00 0.00 0.00 0.00 0.01 0.01 0.02 0.06 0.05 0.08 0.09 0.08 0.07 0.04 0.02 0.02 0.02 0.01 0.04 0.05 0.03 0.01 0.01 0.01 0.01 0.02 0.07 0.17 0.26 0.37 0.41 0.44 0.42
0.00 0.00 0.00 0.01 0.01 0.00 0.00 0.00 0.00 0.00 0.00 0.00 0.01 0.04 0.05 0.10 0.09 0.03 0.04 0.10 0.14 0.15 0.13 0.12 0.10 0.08 0.09 0.10 0.29 0.31 0.07 0.05 0.02 0.01 0.04 0.08 0.13 0.19 0.25 0.30 0.33 0.36 0.34
0.00 0.00 0.00 0.01 0.01 0.00 0.00 0.00 0.00 0.00 0.02 0.01 0.01 0.05 0.10 0.09 0.05 0.01 0.02 0.05 0.09 0.15 0.14 0.21 0.23 0.17 0.20 0.26 0.22 0.21 0.09 0.08 0.08 0.03 0.03 0.13 0.18 0.24 0.38 0.35 0.27 0.23 0.21
0.00 0.00 0.00 0.00 0.01 0.01 0.00 0.00 0.00 0.00 0.01 0.01 0.02 0.01 0.05 0.05 0.02 0.01 0.02 0.03 0.06 0.09 0.15 0.20 0.25 0.20 0.16 0.13 0.13 0.13 0.10 0.13 0.09 0.09 0.09 0.12 0.14 0.18 0.33 0.33 0.23 0.18 0.16
0.00 0.00 0.00 0.00 0.00 0.00 0.01 0.01 0.00 0.00 0.00 0.00 0.01 0.01 0.01 0.02 0.02 0.01 0.01 0.02 0.02 0.04 0.07 0.11 0.12 0.17 0.20 0.13 0.08 0.06 0.08 0.12 0.13 0.17 0.14 0.09 0.07 0.08 0.17 0.21 0.18 0.16 0.15
0.00 0.00 0.00 0.00 0.00 0.00 0.00 0.00 0.00 0.00 0.00 0.00 0.00 0.00 0.00 0.01 0.01 0.02 0.02 0.04 0.04 0.05 0.05 0.09 0.13 0.21 0.25 0.28 0.23 0.12 0.07 0.06 0.08 0.14 0.10 0.07 0.03 0.04 0.07 0.10 0.11 0.11 0.11
0.00 0.00 0.00 0.00 0.00 0.00 0.00 0.00 0.00 0.00 0.00 0.00 0.00 0.00 0.00 0.01 0.02 0.03 0.04 0.07 0.10 0.12 0.14 0.15 0.23 0.28 0.30 0.39 0.27 0.15 0.05 0.03 0.02 0.04 0.04 0.02 0.02 0.02 0.03 0.05 0.06 0.06 0.07
0.00 0.00 0.00 0.00 0.00 0.00 0.00 0.00 0.00 0.00 0.00 0.00 0.00 0.00 0.00 0.01 0.04 0.12 0.14 0.15 0.29 0.26 0.25 0.33 0.46 0.43 0.44 0.44 0.31 0.16 0.05 0.03 0.02 0.01 0.01 0.01 0.02 0.00 0.01 0.04 0.05 0.05 0.06
0.00 0.00 0.00 0.00 0.00 0.01 0.01 0.01 0.00 0.00 0.00 0.00 0.01 0.02 0.03 0.06 0.12 0.25 0.29 0.40 0.47 0.41 0.42 0.41 0.54 0.50 0.41 0.37 0.32 0.22 0.08 0.05 0.02 0.01 0.00 0.00 0.00 0.00 0.01 0.03 0.02 0.03 0.05
0.01 0.01 0.01 0.02 0.04 0.08 0.11 0.09 0.05 0.03 0.02 0.02 0.03 0.08 0.13 0.17 0.23 0.37 0.38 0.43 0.48 0.50 0.50 0.47 0.43 0.48 0.41 0.37 0.38 0.34 0.14 0.05 0.04 0.01 0.00 0.00 0.00 0.01 0.00 0.01 0.03 0.03 0.04
0.02 0.03 0.07 0.12 0.20 0.23 0.25 0.23 0.24 0.23 0.21 0.18 0.20 0.23 0.25 0.28 0.36 0.44 0.38 0.42 0.40 0.39 0.43 0.47 0.42 0.37 0.27 0.34 0.41 0.33 0.12 0.07 0.11 0.05 0.03 0.03 0.03 0.02 0.01 0.02 0.04 0.07 0.08
0.15 0.20 0.24 0.36 0.46 0.43 0.46 0.53 0.62 0.72 0.61 0.52 0.55 0.56 0.53 0.54 0.53 0.51 0.45 0.40 0.37 0.39 0.39 0.38 0.42 0.37 0.28 0.29 0.35 0.39 0.17 0.11 0.12 0.08 0.08 0.12 0.10 0.05 0.03 0.04 0.05 0.12 0.11
0.28 0.32 0.36 0.47 0.58 0.63 0.77 0.93 0.99 1.08 1.02 1.04 1.09 1.11 1.03 0.93 0.83 0.74 0.61 0.48 0.39 0.39 0.41 0.44 0.44 0.42 0.38 0.32 0.38 0.45 0.28 0.16 0.13 0.09 0.13 0.15 0.15 0.12 0.09 0.09 0.08 0.12 0.13
0.39 0.48 0.60 0.71 0.80 0.92 1.06 1.22 1.29 1.32 1.35 1.48 1.61 1.55 1.35 1.14 0.93 0.75 0.59 0.49 0.44 0.44 0.40 0.36 0.35 0.35 0.34 0.36 0.38 0.42 0.45 0.42 0.35 0.16 0.09 0.12 0.17 0.21 0.24 0.18 0.11 0.11 0.15
0.55 0.64 0.77 0.89 0.97 1.04 1.11 1.19 1.28 1.34 1.37 1.37 1.32 1.22 1.09 0.93 0.75 0.60 0.49 0.43 0.40 0.39 0.33 0.29 0.28 0.28 0.31 0.34 0.40 0.46 0.49 0.54 0.58 0.51 0.30 0.28 0.34 0.34 0.34 0.24 0.17 0.16 0.15
0.61 0.63 0.65 0.68 0.75 0.82 0.86 0.90 0.94 0.95 0.94 0.89 0.80 0.73 0.66 0.57 0.45 0.33 0.28 0.28 0.33 0.38 0.34 0.31 0.28 0.28 0.33 0.41 0.44 0.47 0.48 0.47 0.51 0.56 0.42 0.35 0.32 0.31 0.29 0.24 0.22 0.25 0.20